COSMOS 2554

导读 | 豆包AI

COSMOS 2554是独联体(CIS)发射的军用卫星,于2022年4月7日8时成功入轨,延续了俄罗斯COSMOS系列卫星的军事航天布局。该系列卫星多承担空间监测、情报侦察等战略任务,作为近年入轨的新卫星,它进一步强化了区域太空态势感知能力,是独联体军事航天体系中保障战略安全、空间监视的重要在轨资产,相关任务细节仍处于保密状态。

Basic Information
目录编号:
52202
目录名称:
COSMOS 2554
国际标识:
2022-036A
轨道中心:
EARTH
卫星名称:
COSMOS 2554
卫星全名:
--
卫星状态:
在轨 (已飞行1485 天)
发射日期:
2022-04-07 UTC
国别 :
俄罗斯(独联体) (CIS)
星等 :
--
Orbit Information
数据来源 国际轨道数据
星历时间: 2026-04-30T23:37:15+0800
10小时前
查看轨道信息
半长轴: 7283.463km
偏心率: 0.0006149
轨道倾角: 67.150°
近地点辐角 258.914°
升交点赤经 344.237°
平近点角 101.126°
近地点: 900.847km
远地点: 909.805km
周期: 103.102分钟
每日圈数: 13.966767
Detailed Information
使用方式:
暂无
2D Orbit Map
3D Orbit Map
Orbit Altitude Analysis Chart
Orbit Inclination Analysis Chart
Orbit Comprehensive Analysis Chart
View Comprehensive Chart